Погода в Корнилове

Россия / Ивановская область     57°34′52″N   41°53′41″E
темп.,
°C
ветер,
м/с
пор.,
м/с
влажн.,
%
обл.,
%
осадки,
мм/ч
давл.,
гПа
погр.,
м
5 марта, пт
пт500:00−12сз22930 0.0 100021
03:00−13з23960 0.0 100228
06:00−14з239871 0.0 100269
09:00−10зсз369463 0.0 1003221
12:00−6зсз359190 0.0 1004516
15:00−5зсз368695 0.1 1006803
18:00−8зсз399286 0.1 1008272
21:00−13сз389059 0.1 1010154
6 марта, сб
сб600:00−16з23940 0.0 101222
03:00−14зюз379535 0.1 1014220
06:00−14з389697 0.1 1014258
09:00−13зсз359596 0.1 1014237
12:00−10зсз358584 0.0 1015676
15:00−9зсз358292 0.1 1014841
18:00−13зюз239398 0.0 101339
21:00−15зюз239757 0.1 101344
7 марта, вс
вс700:00−15ююз339645 0.0 101172
03:00−15ююз4109439 0.0 1008212
06:00−12ю5139185 0.0 1004400
09:00−8ююз6139393 0.5 1000733
12:00−6ююз61293100 1.1 996930
15:00−5ю61193100 2.3 992995
18:00−5ююв51194100 0.8 989779
21:00−7зюз51293100 1.6 990549
8 марта, пн
пн800:00−8з61391100 0.3 990770
03:00−12зюз5118898 0.4 991338
06:00−16зюз359168 0.0 99184
09:00−12з259368 0.0 992169
12:00−8з349190 0.0 993351
15:00−7зсз369195 0.1 995440
18:00−8ссз4993100 0.4 997563
21:00−11ссз4109199 0.5 1001487
9 марта, вт
вт900:00−14сз499491 0.0 1003281
03:00−15сз399490 0.1 1006315
06:00−17ссз389684 0.0 1009250
09:00−16ссз369292 0.1 1011414
12:00−13сз3588100 0.1 1012550
15:00−12сз3589100 0.1 1013632
18:00−16ссз2395100 0.1 101467
21:00−20ссз239993 0.1 101659